Weather History for Tracy, MN

Change the Weather History Date:

Monday, June 17, 2013

  Actual Average (KMML) Record (KMML)
Temperature  
Mean Temperature 72 °F -  
Max Temperature 81 °F 80 °F 100 °F (1959)
Min Temperature 63 °F 56 °F 44 °F (1974)
Cooling Degree Days 6    
Growing Degree Days 22 (Base 50)    
Moisture  
Dew Point 52 °F    
Average Humidity 49    
Maximum Humidity 73    
Minimum Humidity 32    
Precipitation  
Precipitation 0.00 in - - ()
Sea Level Pressure  
Sea Level Pressure 29.98 in    
Wind  
Wind Speed 2 mph (NW)    
Max Wind Speed 21 mph    
Max Gust Speed 26 mph    
Visibility 10 miles    
Events      
Averages and records for this station are not official NWS values.
T = Trace of Precipitation, MM = Missing Value Source: NWS Daily Summary

Daily Weather History Graph

Daily Weather History Graph

Search for Another Location

Airport:

Trip Planner

Search our weather history database for the weather conditions in past years. The results will help you decide how hot, cold, wet, or windy it might be!

Date:

Astronomy

Jun. 17, 2013 Rise Set
Actual Time 5:38 AM CDT 9:08 PM CDT
Civil Twilight 5:01 AM CDT 9:45 PM CDT
Nautical Twilight 4:13 AM CDT 10:33 PM CDT
Astronomical Twilight 3:11 AM CDT 11:35 PM CDT
Moon 2:37 PM CDT (6/17) 1:26 AM CDT (6/17)
Length of Visible Light 16h 44m
Length of Day
15h 30m
First Quarter, 60% of the Moon is Illuminated
Jun 17
First Quarter
Jun 23
Full
Jun 29
Last Quarter
Jul 8
New
Jul 15
First Quarter

Hourly Weather History & Observations

Time (CDT) Temp. Dew Point Humidity Pressure Visibility Wind Dir Wind Speed Gust Speed Precip Events Conditions
12:13 AM 69.3 °F 52.7 °F 56% 29.95 in 10.0 mi Calm Calm - N/A   Clear
12:33 AM 69.8 °F 53.4 °F 56% 29.95 in 10.0 mi Calm Calm - N/A   Clear
12:53 AM 69.6 °F 54.0 °F 57% 29.95 in 10.0 mi Calm Calm - N/A   Clear
1:09 AM 69.1 °F 54.3 °F 59% 29.94 in 10.0 mi Calm Calm - N/A   Clear
1:25 AM 68.0 °F 53.6 °F 60% 29.94 in 10.0 mi WSW 4.6 mph - N/A   Clear
1:35 AM 68.0 °F 54.7 °F 62% 29.95 in 10.0 mi Calm Calm - N/A   Clear
2:13 AM 67.5 °F 55.4 °F 65% 29.96 in 10.0 mi Calm Calm - N/A   Clear
2:34 AM 67.3 °F 55.6 °F 66% 29.96 in 10.0 mi Calm Calm - N/A   Clear
2:53 AM 66.7 °F 55.6 °F 67% 29.96 in 10.0 mi Calm Calm - N/A   Clear
3:14 AM 65.7 °F 55.6 °F 70% 29.96 in 10.0 mi Calm Calm - N/A   Clear
3:34 AM 65.5 °F 55.6 °F 70% 29.96 in 10.0 mi Calm Calm - N/A   Clear
3:54 AM 64.4 °F 55.6 °F 73% 29.96 in 10.0 mi Calm Calm - N/A   Clear
4:13 AM 64.6 °F 55.2 °F 72% 29.95 in 10.0 mi Calm Calm - N/A   Clear
4:34 AM 63.5 °F 54.9 °F 73% 29.95 in 10.0 mi Calm Calm - N/A   Clear
4:54 AM 63.7 °F 54.0 °F 71% 29.95 in 10.0 mi Calm Calm - N/A   Clear
5:13 AM 63.5 °F 53.1 °F 69% 29.95 in 10.0 mi Calm Calm - N/A   Clear
5:34 AM 63.5 °F 52.5 °F 67% 29.95 in 10.0 mi Calm Calm - N/A   Clear
5:54 AM 64.4 °F 52.0 °F 64% 29.96 in 10.0 mi Calm Calm - N/A   Clear
6:13 AM 64.8 °F 52.0 °F 63% 29.97 in 10.0 mi Calm Calm - N/A   Clear
6:34 AM 64.8 °F 52.5 °F 64% 29.97 in 10.0 mi Calm Calm - N/A   Clear
6:53 AM 66.0 °F 52.3 °F 61% 29.98 in 10.0 mi Calm Calm - N/A   Clear
7:13 AM 67.8 °F 52.9 °F 59% 29.98 in 10.0 mi Calm Calm - N/A   Clear
7:34 AM 69.4 °F 53.1 °F 56% 29.99 in 10.0 mi Calm Calm - N/A   Clear
7:54 AM 70.7 °F 52.3 °F 52% 29.99 in 10.0 mi Calm Calm - N/A   Clear
8:14 AM 71.1 °F 52.2 °F 51% 29.99 in 10.0 mi Calm Calm - N/A   Clear
8:33 AM 72.0 °F 52.5 °F 50% 29.99 in 10.0 mi Calm Calm - N/A   Clear
8:53 AM 73.2 °F 52.5 °F 48% 29.99 in 10.0 mi Calm Calm - N/A   Clear
9:14 AM 73.6 °F 52.0 °F 47% 30.00 in 10.0 mi Calm Calm - N/A   Clear
9:33 AM 74.5 °F 51.8 °F 45% 30.00 in 10.0 mi Calm Calm - N/A   Clear
9:54 AM 74.7 °F 52.5 °F 46% 29.99 in 10.0 mi Calm Calm - N/A   Clear
10:13 AM 75.7 °F 51.4 °F 43% 30.00 in 10.0 mi Calm Calm - N/A   Clear
10:33 AM 77.0 °F 50.4 °F 39% 30.00 in 10.0 mi Calm Calm - N/A   Clear
10:54 AM 77.9 °F 50.0 °F 38% 30.00 in 10.0 mi NW 8.1 mph - N/A   Clear
11:14 AM 78.3 °F 48.4 °F 35% 30.00 in 10.0 mi WNW 4.6 mph 17.3 mph N/A   Clear
11:33 AM 79.0 °F 49.1 °F 35% 30.01 in 10.0 mi NW 6.9 mph 18.4 mph N/A   Clear
11:53 AM 78.6 °F 47.8 °F 34% 30.01 in 10.0 mi Calm Calm - N/A   Clear
12:14 PM 79.3 °F 48.6 °F 34% 30.01 in 10.0 mi NNW 12.7 mph 21.9 mph N/A   Clear
12:34 PM 79.3 °F 48.6 °F 34% 30.01 in 10.0 mi NW 11.5 mph 18.4 mph N/A   Clear
12:54 PM 79.5 °F 48.0 °F 33% 30.00 in 10.0 mi NW 10.4 mph 21.9 mph N/A   Clear
1:13 PM 79.9 °F 47.8 °F 32% 30.01 in 10.0 mi Calm Calm - N/A   Scattered Clouds
1:33 PM 80.6 °F 48.9 °F 33% 30.00 in 10.0 mi Calm Calm - N/A   Scattered Clouds
1:54 PM 79.9 °F 49.1 °F 34% 30.00 in 10.0 mi NW 8.1 mph 20.7 mph N/A   Scattered Clouds
2:13 PM 80.2 °F 48.7 °F 33% 30.00 in 10.0 mi NW 10.4 mph 24.2 mph N/A   Scattered Clouds
2:33 PM 79.5 °F 48.6 °F 34% 29.99 in 10.0 mi NW 20.7 mph 26.5 mph N/A   Scattered Clouds
2:54 PM 80.8 °F 48.0 °F 32% 29.99 in 10.0 mi NW 6.9 mph 23.0 mph N/A   Scattered Clouds
3:13 PM 80.2 °F 48.9 °F 33% 29.99 in 10.0 mi NW 12.7 mph 21.9 mph N/A   Clear
3:33 PM 79.0 °F 50.0 °F 36% 29.99 in 10.0 mi NNW 16.1 mph 21.9 mph N/A   Clear
3:54 PM 79.9 °F 50.4 °F 36% 29.99 in 10.0 mi NW 16.1 mph 21.9 mph N/A   Scattered Clouds
4:14 PM 78.6 °F 50.2 °F 37% 29.99 in 10.0 mi NNW 6.9 mph 21.9 mph N/A   Clear
4:33 PM 79.5 °F 50.5 °F 36% 29.99 in 10.0 mi Calm Calm - N/A   Clear
4:53 PM 79.2 °F 52.3 °F 39% 29.98 in 10.0 mi NNW 3.5 mph - N/A   Scattered Clouds
5:14 PM 80.1 °F 51.8 °F 37% 29.98 in 10.0 mi Calm Calm - N/A   Scattered Clouds
5:34 PM 79.3 °F 52.2 °F 39% 29.97 in 10.0 mi NNW 8.1 mph 21.9 mph N/A   Scattered Clouds
5:53 PM 78.4 °F 51.8 °F 39% 29.97 in 10.0 mi NW 11.5 mph 19.6 mph N/A   Clear
6:14 PM 79.5 °F 51.3 °F 37% 29.97 in 10.0 mi NW 5.8 mph - N/A   Clear
6:33 PM 79.9 °F 50.4 °F 36% 29.97 in 10.0 mi NNW 6.9 mph 17.3 mph N/A   Clear
6:53 PM 78.3 °F 50.9 °F 38% 29.97 in 10.0 mi Calm Calm - N/A   Clear
7:14 PM 77.4 °F 50.9 °F 39% 29.97 in 10.0 mi Calm Calm - N/A   Clear
7:32 PM 78.4 °F 50.9 °F 38% 29.97 in 10.0 mi Calm Calm - N/A   Clear
7:53 PM 77.4 °F 50.5 °F 39% 29.97 in 10.0 mi Calm Calm - N/A   Clear
8:13 PM 77.0 °F 50.9 °F 40% 29.97 in 10.0 mi Calm Calm - N/A   Clear
8:34 PM 76.3 °F 51.3 °F 41% 29.97 in 10.0 mi Calm Calm - N/A   Scattered Clouds
8:54 PM 74.3 °F 51.1 °F 44% 29.98 in 10.0 mi Calm Calm - N/A   Scattered Clouds
9:13 PM 73.2 °F 51.3 °F 46% 29.98 in 10.0 mi Calm Calm - N/A   Clear
9:33 PM 71.2 °F 51.8 °F 50% 29.99 in 10.0 mi Calm Calm - N/A   Clear
9:53 PM 70.9 °F 52.0 °F 51% 30.00 in 10.0 mi Calm Calm - N/A   Scattered Clouds
10:13 PM 71.1 °F 52.3 °F 52% 30.01 in 10.0 mi Calm Calm - N/A   Scattered Clouds
10:34 PM 70.7 °F 52.7 °F 53% 30.01 in 10.0 mi Calm Calm - N/A   Clear
10:53 PM 69.3 °F 52.7 °F 56% 30.01 in 10.0 mi Calm Calm - N/A   Clear
11:13 PM 69.6 °F 52.7 °F 55% 30.02 in 10.0 mi Calm Calm - N/A   Clear
11:34 PM 68.7 °F 52.9 °F 57% 30.02 in 10.0 mi Calm Calm - N/A   Clear
11:54 PM 69.1 °F 52.9 °F 56% 30.01 in 10.0 mi Calm Calm - N/A   Clear